Regional Weather Roundup
Issued by NWS

Home | Current Version | Previous Version | Graphics & Text | Print | Product List | Glossary Off
Versions: 1 2 3 4 5 6 7 8 9 10 11 12 13 14 15 16 17 18 19 20 21 22 23 24 25 26 27 28 29 30 31 32 33 34 35 36 37 38 39 40 41 42 43 44 45 46 47 48 49 50

000
ASUS43 KFSD 231310
RWRSD

WEATHER ROUNDUP FOR SOUTH DAKOTA
NATIONAL WEATHER SERVICE SIOUX FALLS SD
800 AM CDT MON OCT 23 2017

NOTE: "FAIR" INDICATES FEW OR NO CLOUDS BELOW 12,000 FEET WITH NO
SIGNIFICANT WEATHER AND/OR OBSTRUCTIONS TO VISIBILITY.


SDZ001>005-009-010-012>017-231400-
NORTHWEST AND NORTH CENTRAL SOUTH DAKOTA

CITY           SKY/WX    TMP DP  RH WIND       PRES   REMARKS
BUFFALO          N/A     44  28  53 NW21      30.11R
MOBRIDGE       CLEAR     49  38  65 NW28G37   29.97R
$$

SDZ012>016-024>037-041>051-057-063-072>074-231400-
SOUTHWEST AND SOUTH CENTRAL SOUTH DAKOTA

CITY           SKY/WX    TMP DP  RH WIND       PRES   REMARKS
RAPID CTY ARPT CLEAR     48  21  34 NW30G45   30.20R
PIERRE         CLOUDY    49  38  65 NW18      30.07R
CUSTER         CLEAR     38  18  44 NW12G31   30.23R
ELLSWORTH AFB  CLEAR     48  21  34 NW25G37   30.18R
PHILIP         CLEAR     45  30  55 W12       30.14R
PINE RIDGE     CLEAR     34  30  85 CALM      30.24R
SPEARFISH      FAIR      45  21  39 W17G26    30.24R
WINNER         PTSUNNY   52  32  46 NW26G33   30.09S
$$

SDZ004>011-016>023-039-040-231400-
NORTHEAST SOUTH DAKOTA

CITY           SKY/WX    TMP DP  RH WIND       PRES   REMARKS
ABERDEEN       PTCLDY    48  39  71 W14       29.92R
WATERTOWN      CLEAR     48  37  65 NW24G32   29.88R
BROOKINGS      CLEAR     49  38  65 NW18G28   29.90R
SISSETON         N/A     50  37  61 NW23G32   29.84R
$$

SDZ017-020-022-023-036>040-048>070-231400-
SOUTHEAST SOUTH DAKOTA

CITY           SKY/WX    TMP DP  RH WIND       PRES   REMARKS
SIOUX FALLS    CLOUDY    54  38  54 NW20G26   29.92S
HURON          CLOUDY    50  38  63 NW21G26   29.96R
CHAMBERLAIN    PTCLDY    50  37  60 W14G22    30.06R
MITCHELL       CLEAR     51  38  60 NW21      30.00R
YANKTON        CLOUDY    55  40  56 W22G31    29.98R
$$

ABBREVIATIONS USED IN REMARKS
   TC - TEMPERATURE IN CELSIUS
  WCI - WIND CHILL INDEX
   HX - HEAT INDEX
  VSB - VISIBILITY





USA.gov is the U.S. government's official web portal to all federal, state and local government web resources and services.